SWA2214 KTUL-KDEN

Flight info

Callsign SWA2214
Flight time 1h 22m
Altitude 36000
Route FRAKS GCK KIISS CLASH5
Aircraft B738/M-SDE2E3FGHIRWXY/LB1

Departure

Time 2026-05-09 14:47
Airport Tulsa International Airport (KTUL)

Arrival

Time 2026-05-09 16:10
Airport Denver International Airport (KDEN)
Time Latitude Longitude Altitude Speed Heading
2026-05-09 14:29 36.19226 -95.89002 666 ft 0 kts 155°
2026-05-09 14:39 36.19242 -95.89011 667 ft 4 kts 155°
2026-05-09 14:39 36.19266 -95.89025 665 ft 4 kts 155°
2026-05-09 14:40 36.19291 -95.89038 666 ft 4 kts 155°
2026-05-09 14:40 36.19308 -95.89048 667 ft 0 kts 155°
2026-05-09 14:42 36.19301 -95.89040 665 ft 4 kts 126°
2026-05-09 14:42 36.19325 -95.88988 665 ft 11 kts 45°
2026-05-09 14:42 36.19412 -95.88911 667 ft 19 kts 34°
2026-05-09 14:42 36.19445 -95.88758 667 ft 19 kts 90°
2026-05-09 14:43 36.19453 -95.88613 667 ft 13 kts 59°
2026-05-09 14:43 36.19537 -95.88590 669 ft 14 kts 359°
2026-05-09 14:43 36.19668 -95.88592 667 ft 23 kts 359°
2026-05-09 14:43 36.19828 -95.88552 667 ft 23 kts 18°
2026-05-09 14:44 36.19978 -95.88490 667 ft 22 kts 18°
2026-05-09 14:44 36.20124 -95.88430 666 ft 22 kts 18°
2026-05-09 14:44 36.20266 -95.88378 665 ft 21 kts
2026-05-09 14:44 36.20411 -95.88367 667 ft 21 kts
2026-05-09 14:45 36.20561 -95.88359 667 ft 23 kts
2026-05-09 14:45 36.20731 -95.88349 667 ft 25 kts
2026-05-09 14:45 36.20899 -95.88336 667 ft 23 kts
2026-05-09 14:45 36.21058 -95.88327 667 ft 22 kts
2026-05-09 14:46 36.21210 -95.88316 666 ft 22 kts
2026-05-09 14:46 36.21348 -95.88307 666 ft 13 kts
2026-05-09 14:46 36.21389 -95.88226 667 ft 14 kts 94°
2026-05-09 14:46 36.21319 -95.88138 668 ft 21 kts 180°
2026-05-09 14:47 36.20896 -95.88165 668 ft 104 kts 183°
2026-05-09 14:47 36.19932 -95.88229 820 ft 159 kts 183°
2026-05-09 14:47 36.18763 -95.88318 1502 ft 183 kts 183°
2026-05-09 14:47 36.17417 -95.88483 2212 ft 201 kts 195°
2026-05-09 14:48 36.16222 -95.89548 2552 ft 231 kts 237°
2026-05-09 14:48 36.15849 -95.91492 3138 ft 241 kts 275°
2026-05-09 14:48 36.16439 -95.93424 3842 ft 245 kts 307°
2026-05-09 14:48 36.17716 -95.94822 4586 ft 250 kts 324°
2026-05-09 14:49 36.19241 -95.96036 5118 ft 266 kts 328°
2026-05-09 14:49 36.20843 -95.97230 6084 ft 269 kts 328°
2026-05-09 14:49 36.22444 -95.98425 7152 ft 269 kts 329°
2026-05-09 14:49 36.24063 -95.99645 8076 ft 275 kts 329°
2026-05-09 14:50 36.25682 -96.00883 8950 ft 280 kts 328°
2026-05-09 14:50 36.26816 -96.01729 9558 ft 283 kts 330°
2026-05-09 14:50 36.29105 -96.03345 10656 ft 294 kts 330°
2026-05-09 14:50 36.30957 -96.04683 10889 ft 321 kts 329°
2026-05-09 14:51 36.32947 -96.06171 11150 ft 344 kts 328°
2026-05-09 14:51 36.35017 -96.07762 11793 ft 353 kts 327°
2026-05-09 14:51 36.37090 -96.09389 12715 ft 351 kts 327°
2026-05-09 14:51 36.38449 -96.10469 13367 ft 350 kts 327°
2026-05-09 14:52 36.40506 -96.12114 14139 ft 354 kts 326°
2026-05-09 14:52 36.42580 -96.13783 14899 ft 357 kts 326°
2026-05-09 14:52 36.44665 -96.15465 15736 ft 357 kts 326°
2026-05-09 14:52 36.46749 -96.17150 16538 ft 358 kts 326°
2026-05-09 14:53 36.48848 -96.18848 17261 ft 361 kts 326°
2026-05-09 14:53 36.50958 -96.20556 17954 ft 363 kts 326°
2026-05-09 14:53 36.53083 -96.22277 18622 ft 365 kts 326°
2026-05-09 14:53 36.55229 -96.24016 19218 ft 370 kts 326°
2026-05-09 14:54 36.57402 -96.25778 19759 ft 375 kts 325°
2026-05-09 14:54 36.59603 -96.27565 20324 ft 379 kts 325°
2026-05-09 14:54 36.61796 -96.29346 20854 ft 384 kts 325°
2026-05-09 14:54 36.64044 -96.31172 21375 ft 388 kts 325°
2026-05-09 14:55 36.66311 -96.33022 21888 ft 391 kts 323°
2026-05-09 14:55 36.68376 -96.35221 22342 ft 392 kts 311°
2026-05-09 14:55 36.70091 -96.37876 22816 ft 395 kts 304°
2026-05-09 14:55 36.71448 -96.40862 23251 ft 398 kts 293°
2026-05-09 14:56 36.72465 -96.44086 23720 ft 401 kts 291°
2026-05-09 14:56 36.73435 -96.47352 24149 ft 404 kts 290°
2026-05-09 14:56 36.74399 -96.50655 24564 ft 407 kts 290°
2026-05-09 14:56 36.75371 -96.53982 24974 ft 409 kts 290°
2026-05-09 14:57 36.76355 -96.57329 25387 ft 412 kts 290°
2026-05-09 14:57 36.77348 -96.60689 25786 ft 414 kts 290°
2026-05-09 14:57 36.78351 -96.64065 26178 ft 417 kts 291°
2026-05-09 14:57 36.79364 -96.67461 26544 ft 419 kts 291°
2026-05-09 14:58 36.80385 -96.70882 26891 ft 421 kts 291°
2026-05-09 14:58 36.81412 -96.74318 27226 ft 424 kts 291°
2026-05-09 14:58 36.82443 -96.77773 27560 ft 426 kts 291°
2026-05-09 14:58 36.83478 -96.81245 27922 ft 428 kts 291°
2026-05-09 14:59 36.84517 -96.84735 28227 ft 430 kts 291°
2026-05-09 14:59 36.85549 -96.88206 28532 ft 432 kts 291°
2026-05-09 14:59 36.86595 -96.91730 28830 ft 434 kts 291°
2026-05-09 14:59 36.87649 -96.95282 29124 ft 436 kts 291°
2026-05-09 15:00 36.88701 -96.98840 29447 ft 437 kts 290°
2026-05-09 15:00 36.89753 -97.02401 29885 ft 435 kts 290°
2026-05-09 15:00 36.90798 -97.05941 30365 ft 433 kts 290°
2026-05-09 15:00 36.91835 -97.09457 30783 ft 432 kts 291°
2026-05-09 15:01 36.93915 -97.16515 31469 ft 433 kts 290°
2026-05-09 15:01 36.94940 -97.20006 31854 ft 432 kts 290°
2026-05-09 15:01 36.95973 -97.23525 32232 ft 431 kts 290°
2026-05-09 15:02 36.97003 -97.27042 32615 ft 430 kts 290°
2026-05-09 15:02 36.98030 -97.30551 32940 ft 430 kts 290°
2026-05-09 15:02 36.99056 -97.34062 33266 ft 430 kts 290°
2026-05-09 15:02 37.00079 -97.37564 33640 ft 428 kts 290°
2026-05-09 15:03 37.01099 -97.41064 33986 ft 427 kts 290°
2026-05-09 15:03 37.02116 -97.44558 34283 ft 428 kts 290°
2026-05-09 15:03 37.03134 -97.48059 34599 ft 427 kts 290°
2026-05-09 15:03 37.04149 -97.51554 34950 ft 426 kts 290°
2026-05-09 15:04 37.05157 -97.55032 35269 ft 425 kts 290°
2026-05-09 15:04 37.06151 -97.58461 35548 ft 424 kts 290°
2026-05-09 15:06 37.13110 -97.82604 37815 ft 411 kts 290°
2026-05-09 15:06 37.14075 -97.85968 38128 ft 409 kts 290°
2026-05-09 15:06 37.15035 -97.89318 38368 ft 408 kts 290°
2026-05-09 15:06 37.15996 -97.92676 38578 ft 408 kts 290°
2026-05-09 15:07 37.16954 -97.96027 38779 ft 408 kts 290°
2026-05-09 15:07 37.17910 -97.99378 38944 ft 409 kts 290°
2026-05-09 15:07 37.18869 -98.02740 39102 ft 409 kts 290°
2026-05-09 15:08 37.20790 -98.09499 39360 ft 412 kts 290°
2026-05-09 15:08 37.22702 -98.16240 39770 ft 410 kts 290°
2026-05-09 15:08 37.23657 -98.19611 39888 ft 411 kts 290°
2026-05-09 15:10 37.31232 -98.46506 39956 ft 402 kts 289°
2026-05-09 15:11 37.33088 -98.53135 39965 ft 401 kts 289°
2026-05-09 15:11 37.34933 -98.59745 39957 ft 402 kts 289°
2026-05-09 15:12 37.36783 -98.66386 39968 ft 403 kts 289°
2026-05-09 15:12 37.38638 -98.73065 39967 ft 405 kts 289°
2026-05-09 15:13 37.40497 -98.79772 39964 ft 407 kts 289°
2026-05-09 15:13 37.42359 -98.86510 39962 ft 409 kts 289°
2026-05-09 15:14 37.44216 -98.93246 39980 ft 411 kts 289°
2026-05-09 15:14 37.46094 -99.00077 39972 ft 413 kts 289°
2026-05-09 15:15 37.47971 -99.06924 39973 ft 414 kts 289°
2026-05-09 15:15 37.49846 -99.13774 39961 ft 414 kts 288°
2026-05-09 15:16 37.51705 -99.20587 39972 ft 413 kts 288°
2026-05-09 15:16 37.53563 -99.27419 39966 ft 411 kts 288°
2026-05-09 15:17 37.55412 -99.34228 39977 ft 410 kts 288°
2026-05-09 15:17 37.57250 -99.41017 39965 ft 408 kts 288°
2026-05-09 15:18 37.59077 -99.47779 39978 ft 407 kts 288°
2026-05-09 15:18 37.60894 -99.54530 39970 ft 405 kts 288°
2026-05-09 15:19 37.62701 -99.61257 39967 ft 404 kts 288°
2026-05-09 15:19 37.64490 -99.67929 39983 ft 403 kts 288°
2026-05-09 15:20 37.67175 -99.77994 39983 ft 403 kts 288°
2026-05-09 15:21 37.68964 -99.84715 39985 ft 403 kts 288°
2026-05-09 15:21 37.70747 -99.91435 39983 ft 404 kts 287°
2026-05-09 15:22 37.72529 -99.98163 39984 ft 404 kts 288°
2026-05-09 15:22 37.74311 -100.04911 39986 ft 405 kts 287°
2026-05-09 15:23 37.76091 -100.11669 39980 ft 405 kts 287°
2026-05-09 15:23 37.77860 -100.18400 39981 ft 406 kts 287°
2026-05-09 15:24 37.79637 -100.25183 39982 ft 406 kts 287°
2026-05-09 15:24 37.81410 -100.31982 39979 ft 407 kts 287°
2026-05-09 15:25 37.83176 -100.38751 39979 ft 408 kts 287°
2026-05-09 15:25 37.84949 -100.45575 39979 ft 408 kts 287°
2026-05-09 15:26 37.87602 -100.55812 39980 ft 408 kts 287°
2026-05-09 15:26 37.89363 -100.62638 39983 ft 408 kts 287°
2026-05-09 15:27 37.91121 -100.69461 39978 ft 407 kts 287°
2026-05-09 15:27 37.93196 -100.76121 39989 ft 407 kts 295°
2026-05-09 15:28 37.95711 -100.82533 39979 ft 406 kts 295°
2026-05-09 15:28 37.98226 -100.88948 39982 ft 406 kts 295°
2026-05-09 15:29 38.00691 -100.95324 39985 ft 405 kts 294°
2026-05-09 15:29 38.03152 -101.01743 39982 ft 403 kts 294°
2026-05-09 15:30 38.05597 -101.08138 39988 ft 401 kts 294°
2026-05-09 15:30 38.08027 -101.14505 39994 ft 399 kts 294°
2026-05-09 15:31 38.10437 -101.20837 39984 ft 398 kts 294°
2026-05-09 15:31 38.12840 -101.27158 39986 ft 396 kts 294°
2026-05-09 15:32 38.15227 -101.33454 39982 ft 395 kts 294°
2026-05-09 15:32 38.17593 -101.39703 39978 ft 394 kts 294°
2026-05-09 15:33 38.20067 -101.45918 39973 ft 394 kts 299°
2026-05-09 15:33 38.23010 -101.51823 39962 ft 395 kts 300°
2026-05-09 15:34 38.25985 -101.57668 39964 ft 396 kts 300°
2026-05-09 15:34 38.28961 -101.63576 39963 ft 397 kts 300°
2026-05-09 15:35 38.31927 -101.69518 39955 ft 398 kts 300°
2026-05-09 15:35 38.34893 -101.75482 39952 ft 399 kts 300°
2026-05-09 15:36 38.37862 -101.81465 39953 ft 399 kts 300°
2026-05-09 15:36 38.40834 -101.87463 39953 ft 400 kts 300°
2026-05-09 15:37 38.43809 -101.93477 39952 ft 401 kts 300°
2026-05-09 15:37 38.46783 -101.99497 39952 ft 401 kts 300°
2026-05-09 15:38 38.49751 -102.05522 39948 ft 400 kts 299°
2026-05-09 15:38 38.52693 -102.11506 39954 ft 400 kts 299°
2026-05-09 15:39 38.55646 -102.17525 39955 ft 400 kts 299°
2026-05-09 15:39 38.58597 -102.23550 39955 ft 399 kts 299°
2026-05-09 15:40 38.61035 -102.28552 39955 ft 398 kts 299°
2026-05-09 15:40 38.63959 -102.34565 39961 ft 397 kts 299°
2026-05-09 15:41 38.66876 -102.40576 39962 ft 397 kts 299°
2026-05-09 15:41 38.69788 -102.46585 39966 ft 397 kts 298°
2026-05-09 15:42 38.72692 -102.52588 39960 ft 396 kts 299°
2026-05-09 15:42 38.75572 -102.58550 39966 ft 396 kts 298°
2026-05-09 15:43 38.78466 -102.64558 39963 ft 396 kts 298°
2026-05-09 15:43 38.81377 -102.70612 39415 ft 402 kts 298°
2026-05-09 15:44 38.82861 -102.73701 38827 ft 400 kts 298°
2026-05-09 15:44 38.84298 -102.76692 38248 ft 399 kts 298°
2026-05-09 15:44 38.85752 -102.79724 37638 ft 398 kts 297°
2026-05-09 15:44 38.87199 -102.82747 37024 ft 398 kts 297°
2026-05-09 15:45 38.88647 -102.85773 36389 ft 397 kts 297°
2026-05-09 15:45 38.90092 -102.88799 35744 ft 398 kts 297°
2026-05-09 15:45 38.91543 -102.91837 35024 ft 400 kts 297°
2026-05-09 15:45 38.93005 -102.94899 34294 ft 402 kts 297°
2026-05-09 15:46 38.94474 -102.97981 33552 ft 405 kts 297°
2026-05-09 15:46 38.95953 -103.01073 32789 ft 407 kts 297°
2026-05-09 15:46 38.97447 -103.04159 32198 ft 405 kts 298°
2026-05-09 15:46 38.98936 -103.07225 31641 ft 402 kts 298°
2026-05-09 15:47 39.00412 -103.10268 31105 ft 399 kts 298°
2026-05-09 15:47 39.01874 -103.13290 30567 ft 396 kts 298°
2026-05-09 15:47 39.03322 -103.16287 30035 ft 393 kts 298°
2026-05-09 15:47 39.04740 -103.19230 29517 ft 390 kts 298°
2026-05-09 15:48 39.06154 -103.22193 28971 ft 387 kts 298°
2026-05-09 15:48 39.07549 -103.25132 28432 ft 384 kts 298°
2026-05-09 15:48 39.08933 -103.28055 27896 ft 381 kts 298°
2026-05-09 15:48 39.10307 -103.30960 27352 ft 379 kts 298°
2026-05-09 15:49 39.11677 -103.33855 26823 ft 376 kts 298°
2026-05-09 15:49 39.13032 -103.36719 26291 ft 373 kts 298°
2026-05-09 15:49 39.14380 -103.39573 25762 ft 371 kts 298°
2026-05-09 15:49 39.15718 -103.42409 25232 ft 369 kts 299°
2026-05-09 15:50 39.17047 -103.45225 24710 ft 367 kts 299°
2026-05-09 15:50 39.18349 -103.47985 24199 ft 364 kts 299°
2026-05-09 15:50 39.19663 -103.50772 23676 ft 362 kts 299°
2026-05-09 15:50 39.20966 -103.53541 23135 ft 361 kts 299°
2026-05-09 15:51 39.22264 -103.56304 22614 ft 359 kts 299°
2026-05-09 15:51 39.23550 -103.59044 22103 ft 356 kts 300°
2026-05-09 15:51 39.24833 -103.61773 21595 ft 354 kts 300°
2026-05-09 15:51 39.26105 -103.64485 21087 ft 352 kts 300°
2026-05-09 15:52 39.28611 -103.69831 20413 ft 338 kts 300°
2026-05-09 15:52 39.29885 -103.72374 19905 ft 337 kts 302°
2026-05-09 15:52 39.31204 -103.74855 19452 ft 334 kts 303°
2026-05-09 15:53 39.32527 -103.77313 18991 ft 332 kts 303°
2026-05-09 15:53 39.33838 -103.79757 18533 ft 330 kts 303°
2026-05-09 15:53 39.35129 -103.82188 18081 ft 325 kts 303°
2026-05-09 15:53 39.36412 -103.84584 17627 ft 322 kts 304°
2026-05-09 15:54 39.37669 -103.86926 17192 ft 320 kts 303°
2026-05-09 15:54 39.38908 -103.89321 16710 ft 320 kts 303°
2026-05-09 15:54 39.40128 -103.91706 16437 ft 312 kts 303°
2026-05-09 15:54 39.41352 -103.93986 16300 ft 304 kts 304°
2026-05-09 15:55 39.42529 -103.96185 16153 ft 293 kts 303°
2026-05-09 15:55 39.43581 -103.98382 16019 ft 283 kts 292°
2026-05-09 15:55 39.44082 -104.00821 15752 ft 281 kts 277°
2026-05-09 15:55 39.44094 -104.03345 15463 ft 280 kts 270°
2026-05-09 15:56 39.44002 -104.05859 15123 ft 279 kts 270°
2026-05-09 15:56 39.43895 -104.08360 14801 ft 278 kts 270°
2026-05-09 15:56 39.43792 -104.10857 14465 ft 277 kts 270°
2026-05-09 15:56 39.43695 -104.13335 14135 ft 276 kts 270°
2026-05-09 15:57 39.43602 -104.15805 13807 ft 274 kts 270°
2026-05-09 15:57 39.43513 -104.18267 13482 ft 274 kts 270°
2026-05-09 15:57 39.43425 -104.20698 13344 ft 266 kts 270°
2026-05-09 15:57 39.43339 -104.23056 13212 ft 259 kts 270°
2026-05-09 15:58 39.43257 -104.25354 13099 ft 252 kts 270°
2026-05-09 15:58 39.43176 -104.27583 12931 ft 247 kts 270°
2026-05-09 15:58 39.43097 -104.29776 12664 ft 246 kts 270°
2026-05-09 15:58 39.43016 -104.32001 12414 ft 244 kts 270°
2026-05-09 15:59 39.42936 -104.34180 12133 ft 242 kts 270°
2026-05-09 15:59 39.42858 -104.36352 11880 ft 241 kts 270°
2026-05-09 15:59 39.42780 -104.38516 11605 ft 241 kts 270°
2026-05-09 15:59 39.42700 -104.40675 11353 ft 240 kts 270°
2026-05-09 16:00 39.42620 -104.42809 11083 ft 241 kts 270°
2026-05-09 16:00 39.42593 -104.43540 10998 ft 240 kts 270°
2026-05-09 16:00 39.42475 -104.47104 10618 ft 237 kts 270°
2026-05-09 16:00 39.42403 -104.49225 10410 ft 236 kts 270°
2026-05-09 16:01 39.42332 -104.51340 10182 ft 235 kts 270°
2026-05-09 16:01 39.42268 -104.53446 9958 ft 233 kts 271°
2026-05-09 16:01 39.42211 -104.55518 9760 ft 229 kts 271°
2026-05-09 16:01 39.42154 -104.57575 9534 ft 228 kts 270°
2026-05-09 16:02 39.42099 -104.59632 9327 ft 229 kts 270°
2026-05-09 16:02 39.42182 -104.63758 9058 ft 230 kts 291°
2026-05-09 16:02 39.43058 -104.65411 9059 ft 229 kts 319°
2026-05-09 16:03 39.44453 -104.66396 9046 ft 232 kts 342°
2026-05-09 16:03 39.46061 -104.66608 9053 ft 234 kts 356°
2026-05-09 16:03 39.46558 -104.66605 9037 ft 235 kts 356°
2026-05-09 16:03 39.48033 -104.66574 9028 ft 237 kts 357°
2026-05-09 16:04 39.49665 -104.66531 9034 ft 237 kts 356°
2026-05-09 16:04 39.51313 -104.66500 9043 ft 237 kts 357°
2026-05-09 16:04 39.52974 -104.66464 9026 ft 238 kts 356°
2026-05-09 16:04 39.54630 -104.66430 9019 ft 238 kts 357°
2026-05-09 16:05 39.56286 -104.66395 9014 ft 238 kts 356°
2026-05-09 16:05 39.57946 -104.66372 9008 ft 238 kts 356°
2026-05-09 16:05 39.59601 -104.66345 9031 ft 238 kts 357°
2026-05-09 16:05 39.61263 -104.66321 8992 ft 239 kts 356°
2026-05-09 16:06 39.62918 -104.66297 9021 ft 237 kts 356°
2026-05-09 16:06 39.64573 -104.66274 8968 ft 238 kts 356°
2026-05-09 16:06 39.66235 -104.66254 8604 ft 244 kts 357°
2026-05-09 16:06 39.67923 -104.66233 8330 ft 242 kts 357°
2026-05-09 16:07 39.69599 -104.66214 7967 ft 240 kts 357°
2026-05-09 16:07 39.71261 -104.66198 7648 ft 238 kts 358°
2026-05-09 16:07 39.72897 -104.66177 7361 ft 228 kts 358°
2026-05-09 16:07 39.74423 -104.66154 7216 ft 209 kts 358°
2026-05-09 16:08 39.75811 -104.66134 7098 ft 190 kts 358°
2026-05-09 16:08 39.77037 -104.66111 6914 ft 167 kts 358°
2026-05-09 16:08 39.78171 -104.66078 6550 ft 159 kts 358°
2026-05-09 16:08 39.79233 -104.66071 6214 ft 153 kts 356°
2026-05-09 16:09 39.80307 -104.66098 5982 ft 156 kts 357°
2026-05-09 16:09 39.81386 -104.66084 5739 ft 155 kts 359°
2026-05-09 16:09 39.82454 -104.66057 5532 ft 154 kts 357°
2026-05-09 16:09 39.83497 -104.66052 5428 ft 142 kts
2026-05-09 16:10 39.84268 -104.66038 5420 ft 79 kts
2026-05-09 16:10 39.84656 -104.66043 5414 ft 40 kts 353°
2026-05-09 16:10 39.84834 -104.66114 5399 ft 23 kts 336°
2026-05-09 16:10 39.84934 -104.66179 5407 ft 1 kts 333°
2026-05-09 16:11 39.84948 -104.66188 5406 ft 3 kts 333°
2026-05-09 16:11 39.84957 -104.66194 5395 ft 2 kts 333°
2026-05-09 16:11 39.85006 -104.66224 5397 ft 14 kts 338°
2026-05-09 16:11 39.85127 -104.66242 5400 ft 19 kts
2026-05-09 16:12 39.85263 -104.66240 5391 ft 19 kts 360°
2026-05-09 16:12 39.85395 -104.66239 5393 ft 19 kts
2026-05-09 16:12 39.85523 -104.66238 5392 ft 19 kts
2026-05-09 16:12 39.85669 -104.66235 5391 ft 24 kts
2026-05-09 16:13 39.85845 -104.66233 5387 ft 26 kts
2026-05-09 16:13 39.86011 -104.66231 5386 ft 23 kts
2026-05-09 16:13 39.86169 -104.66229 5381 ft 23 kts
2026-05-09 16:13 39.86325 -104.66227 5381 ft 22 kts
2026-05-09 16:14 39.86461 -104.66228 5377 ft 16 kts 347°
2026-05-09 16:14 39.86501 -104.66347 5376 ft 15 kts 271°
2026-05-09 16:14 39.86501 -104.66484 5375 ft 15 kts 265°
2026-05-09 16:14 39.86471 -104.66608 5374 ft 14 kts 261°
2026-05-09 16:15 39.86470 -104.66734 5375 ft 14 kts 270°
2026-05-09 16:15 39.86470 -104.66877 5376 ft 19 kts 270°
2026-05-09 16:15 39.86471 -104.67044 5373 ft 18 kts 270°
2026-05-09 16:15 39.86473 -104.67206 5374 ft 17 kts 270°
2026-05-09 16:16 39.86474 -104.67360 5376 ft 17 kts 270°
2026-05-09 16:16 39.86475 -104.67506 5374 ft 14 kts 270°
2026-05-09 16:16 39.86464 -104.67602 5376 ft 10 kts 243°
2026-05-09 16:16 39.86422 -104.67637 5376 ft 7 kts 186°
2026-05-09 16:17 39.86373 -104.67637 5376 ft 5 kts 180°
2026-05-09 16:17 39.86356 -104.67637 5376 ft 0 kts 180°